Location: Unspecified
(0.0000°N, 0.0000°E)
Time: 07:36:56
(UTC+00:00)

Vanguard 2 - All Passes

Search period start: 01 September 2014 00:00
Search period end: 11 September 2014 00:00
Orbit: 553 x 2948 km, 32.9° (Epoch: 31 August)

Date Brightness Start Highest point End Pass type
(mag) Time Alt. Az. Time Alt. Az. Time Alt. Az.
01 Sep - 02:19:18 10° S 02:25:38 16° SSE 02:33:20 10° ESE visible
01 Sep - 04:25:22 10° SW 04:38:34 48° SE 04:55:24 10° ENE visible
01 Sep - 06:35:13 10° WSW 06:51:46 78° NW 07:09:14 10° NE daylight
01 Sep - 08:50:28 10° W 09:05:40 34° NNW 09:18:51 10° NNE daylight
01 Sep - 11:15:44 10° NW 11:20:38 12° NNW 11:25:00 10° N daylight
01 Sep - 15:47:10 10° N 15:48:55 11° NNE 15:50:30 10° NE daylight
01 Sep - 17:53:51 10° NW 17:58:37 67° NE 18:02:31 10° ESE daylight
01 Sep - 20:06:37 10° SW 20:07:04 10° SSW 20:07:31 10° SSW visible
02 Sep - 02:37:25 10° SSW 02:45:45 22° SE 02:56:32 10° ESE visible
02 Sep - 04:44:23 10° SW 04:58:13 61° SE 05:15:55 10° ENE visible
02 Sep - 06:55:08 10° WSW 07:11:33 62° NW 07:28:33 10° NE daylight
02 Sep - 09:12:18 10° W 09:25:54 26° NNW 09:37:41 10° NNE daylight
02 Sep - 16:04:35 10° NNW 16:08:54 18° NNE 16:12:16 10° ENE daylight
02 Sep - 18:13:20 10° WNW 18:17:55 56° SW 18:21:47 10° SE visible
03 Sep - 02:55:51 10° SSW 03:05:35 29° SE 03:18:47 10° E visible
03 Sep - 05:03:34 10° SW 05:17:50 77° SE 05:36:01 10° ENE visible
03 Sep - 07:15:27 10° WSW 07:31:27 49° NNW 07:47:43 10° NE daylight
03 Sep - 09:34:50 10° WNW 09:46:26 21° NNW 09:56:31 10° NNE daylight
03 Sep - 16:23:08 10° NNW 16:28:42 31° NNE 16:32:43 10° E daylight
03 Sep - 18:33:22 10° W 18:37:11 27° SW 18:40:34 10° SSE visible
04 Sep - 03:14:30 10° SSW 03:25:12 39° SE 03:40:16 10° E visible
04 Sep - 05:22:59 10° WSW 05:37:30 85° NW 05:55:46 10° NE visible
04 Sep - 07:36:13 10° W 07:51:32 39° NNW 08:06:47 10° NNE daylight
04 Sep - 09:57:57 10° NW 10:07:15 16° NNW 10:15:25 10° NNE daylight
04 Sep - 14:33:30 10° NNW 14:37:44 14° NNE 14:41:10 10° NE daylight
04 Sep - 16:42:08 10° NW 16:48:18 55° NNE 16:52:33 10° ESE daylight
04 Sep - 18:54:21 10° WSW 18:56:29 13° SW 18:58:31 10° S visible
05 Sep - 01:28:17 10° S 01:33:19 15° SE 01:39:30 10° ESE visible
05 Sep - 03:33:19 10° SW 03:44:42 52° SE 04:01:09 10° ENE visible
05 Sep - 05:42:39 10° WSW 05:57:16 69° NW 06:15:16 10° NE daylight
05 Sep - 07:57:32 10° W 08:11:51 31° NNW 08:25:47 10° NNE daylight
05 Sep - 10:21:23 10° NW 10:28:21 14° NNW 10:34:33 10° NNE daylight
05 Sep - 12:43:45 10° N 12:44:46 10° N 12:45:45 10° N daylight
05 Sep - 14:51:43 10° NNW 14:57:54 21° NNE 15:02:23 10° ENE daylight
05 Sep - 17:01:33 10° WNW 17:07:41 78° SW 17:11:55 10° SE daylight
06 Sep - 01:46:02 10° S 01:53:05 21° SE 02:02:35 10° E visible
06 Sep - 03:52:20 10° SW 04:04:11 68° SE 04:21:31 10° ENE visible
06 Sep - 06:02:40 10° WSW 06:17:10 54° NNW 06:34:34 10° NE daylight
06 Sep - 08:19:27 10° WNW 08:32:26 24° NNW 08:44:49 10° NNE daylight
06 Sep - 10:44:23 10° NNW 10:49:36 12° N 10:54:19 10° NNE daylight
06 Sep - 13:00:51 10° NNW 13:05:32 13° N 13:09:28 10° NE daylight
06 Sep - 15:10:25 10° NW 15:17:52 32° NNE 15:22:48 10° E daylight
06 Sep - 17:21:26 10° WNW 17:26:54 40° SW 17:30:53 10° SSE daylight
07 Sep - 02:04:20 10° SSW 02:12:36 30° SE 02:24:35 10° E visible
07 Sep - 04:11:33 10° SW 04:23:43 87° SE 04:41:29 10° NE visible
07 Sep - 06:23:04 10° W 06:37:16 43° NNW 06:53:45 10° NE daylight
07 Sep - 08:41:56 10° WNW 08:53:19 20° NNW 09:03:59 10° NNE daylight
07 Sep - 11:05:59 10° NNW 11:10:54 12° N 11:15:17 10° NNE daylight
07 Sep - 13:19:13 10° NNW 13:26:05 18° NNE 13:31:18 10° NE daylight
07 Sep - 15:29:29 10° NW 15:37:37 51° NNE 15:42:42 10° ESE daylight
07 Sep - 17:41:56 10° W 17:46:03 21° SW 17:49:21 10° SSE daylight
08 Sep - 02:22:56 10° SSW 02:31:58 42° SE 02:45:49 10° ENE visible
08 Sep - 04:31:02 10° WSW 04:43:23 75° NW 05:01:09 10° NE visible
08 Sep - 06:43:57 10° W 06:57:36 34° NNW 07:12:52 10° NNE daylight
08 Sep - 09:04:45 10° NW 09:14:29 17° NNW 09:23:28 10° NNE daylight
08 Sep - 11:26:03 10° NNW 11:32:05 13° N 11:37:15 10° NNE daylight
08 Sep - 13:37:54 10° NNW 13:46:25 24° NNE 13:52:21 10° ENE daylight
08 Sep - 15:48:52 10° NW 15:57:08 84° NE 16:02:11 10° ESE daylight
08 Sep - 18:03:59 10° SW 18:05:15 11° SW 18:06:28 10° SSW daylight
09 Sep - 00:37:28 10° S 00:41:14 13° SE 00:45:47 10° ESE visible
09 Sep - 02:41:45 10° SW 02:51:17 57° SE 03:06:29 10° ENE visible
09 Sep - 04:50:48 10° WSW 05:03:13 59° NNW 05:20:35 10° NE visible
09 Sep - 07:05:22 10° WNW 07:18:11 27° NNW 07:32:01 10° NNE daylight
09 Sep - 09:27:26 10° NW 09:35:52 15° N 09:43:33 10° NNE daylight
09 Sep - 11:45:21 10° NNW 11:53:04 16° N 11:59:17 10° NE daylight
09 Sep - 13:56:47 10° NW 14:06:33 34° NNE 14:12:48 10° E daylight
09 Sep - 16:08:38 10° WNW 16:16:25 58° SW 16:21:19 10° SE daylight
10 Sep - 00:54:55 10° S 01:00:43 21° SE 01:08:42 10° E visible
10 Sep - 03:00:49 10° SW 03:10:40 77° SE 03:26:40 10° ENE visible
10 Sep - 05:10:55 10° W 05:23:17 46° NNW 05:39:52 10° NE visible
10 Sep - 07:27:19 10° WNW 07:39:04 22° NNW 07:51:19 10° NNE daylight
10 Sep - 09:49:18 10° NNW 09:57:18 14° N 10:04:29 10° NNE daylight
10 Sep - 12:04:23 10° NNW 12:13:48 20° NNE 12:20:53 10° ENE daylight
10 Sep - 14:15:54 10° NW 14:26:26 49° NNE 14:32:47 10° ESE daylight
10 Sep - 16:28:52 10° WNW 16:35:33 33° SW 16:40:04 10° SSE daylight
